Regional Weather Roundup
Issued by NWS Pendleton, OR

Home | Current Version | Previous Version | Text Only | Print | Product List | Glossary On
Versions: 1 2 3 4 5 6 7 8 9 10 11 12 13 14 15 16 17 18 19 20 21 22 23 24 25 26 27 28 29 30 31 32 33 34 35 36 37 38 39 40 41 42 43 44 45 46 47 48 49 50
000
ASUS46 KPDT 260025
RWRPDT
PENDLETON REGIONAL WEATHER ROUNDUP
NATIONAL WEATHER SERVICE PENDLETON OREGON
500 PM PDT MON SEP 25 2017

NOTE: FAIR INDICATES FEW OR NO CLOUDS BELOW 12,000 FEET WITH NO
SIGNIFICANT WEATHER AND/OR OBSTRUCTIONS TO VISIBILITY.

# INDICATES UNOFFICIAL STATION AND DATA

WAZ520-260110-
EAST SLOPES OF WASHINGTON CASCADES

CITY            SKY/WX      TMP DP  RH  WIND    PRES   REMARKS
#BULLFROG       N/A         62  48  60  SW5     N/A
#CLE ELUM HS    N/A         61  47  60  NW3     30.01S
#CLE ELUM LAKE  N/A         58  47  67  CALM    30.01S
#EASTON DOT     N/A         57  48  72  CALM    N/A
#ELK HTS DOT    N/A         62  61  97  W5      N/A
#GLENWOOD       N/A         63  52  67  S6      30.02
#NELSON 3SW     N/A         57  48  72  CALM    30.23S
#NILE           N/A         62  48  60  SW1     29.30S
#TEANAWAY 4NE   N/A         64  50  60  W1      N/A
#TROUT LAKE 1NE N/A         61  50  67  W6      30.04
#TROUT LAKE 1E  N/A         62  51  67  CALM    30.11
$$

WAZ521-260110-
SIMCOE HIGHLANDS

CITY            SKY/WX      TMP DP  RH  WIND    PRES   REMARKS
#BICKLETON HS   N/A         64  50  60  S3      30.03S
#SATUS PASS DOT N/A         64  38  38  S2      N/A
#CENTERVILLE 1SWN/A         65  49  56  W18     29.99
#GOLDENDALE 1NE N/A         68  37  32  SW7     N/A
#GOLDENDALE 4W  N/A         67  22  18  W14     30.09S
#GOODNOE HILLS  N/A         71  51  49  W14     N/A
#LYLE 6NE       N/A         63  52  67  S7      30.04
#PITT 4SE       N/A         59  50  72  SW1     30.06S
$$

WAZ026-260110-
KITTITAS VALLEY

CITY            SKY/WX      TMP DP  RH  WIND    PRES   REMARKS
ELLENSBURG AP   MOCLDY      67  48  50  NW20G29 30.03
6HR MIN TEMP:   65; 6HR MAX TEMP:   69; 6HR PCP:  TRACE;

#ELLENSBURG CWU N/A         65  49  56  W8      29.93
#ELLENSBURG 3NE N/A         64  50  60  N10     28.11S
#ELLENSBURG 1E  N/A         65  48  54  NW2     30.03S
#KITTITAS 3S    N/A         65  49  56  NW8     29.98S
#MANASTASH RDG  N/A         62  61  97  N7      N/A
#ROCKY CYN DOT  N/A         65  47  52  W16     N/A
#RYEGRASS DOT   N/A         63  44  50  S14     N/A
$$

WAZ027-260110-
YAKIMA VALLEY

CITY            SKY/WX      TMP DP  RH  WIND    PRES   REMARKS
SUNNYSIDE AP    CLOUDY      67  54  63  CALM    30.01F
YAKIMA AIRPORT  CLOUDY      74  46  37  CALM    30.02
6HR MIN TEMP:   65; 6HR MAX TEMP:   74;

YAKIMA-VAGABOND MOCLDY      70  46  42  CALM    30.01
6HR MIN TEMP:   63; 6HR MAX TEMP:   70;

#DONALD 2NE     N/A         72  18  13  CALM    30.02S
#GRANDVIEW      N/A         69  48  47  CALM    30.01F
#MABTON         N/A         71  52  51  CALM    30.01S
#MOXEE 2E       N/A         69  N/A N/A CALM    29.93S
#NACHES 2SW     N/A         67  51  56  W6      30.06S
#OUTLOOK DOT    N/A         71  49  46  N1      29.99
#PARKER DOT     N/A         72  45  38  CALM    30.01
#TERRACE HTS    N/A         70  49  47  CALM    29.96
#TOPPENISH      N/A         70  51  51  CALM    29.92
#I82 S UMTANUM RN/A         67  46  47  S3      N/A
#UNION GAP DOT  N/A         69  50  51  S1      30.04
#W YAKIMA       N/A         69  49  49  CALM    29.99S
#WHITE SWAN 5E  N/A         71  51  49  CALM    30.00
#WILEY CITY 3W  N/A         70  45  41  CALM    30.00S
#ZILLAH DOT     N/A         70  48  46  E1      N/A
$$

WAZ028-260110-
LOWER COLUMBIA BASIN...WASHINGTON

CITY            SKY/WX      TMP DP  RH  WIND    PRES   REMARKS
HANFORD         CLOUDY      72  46  39  NW2     30.01
PASCO           MOCLDY      74  47  38  CALM    30.01
6HR MIN TEMP:   67; 6HR MAX TEMP:   76;

PROSSER AWOS    N/A         72  48  43  CALM    30.04S
RICHLAND AWOS   LGT RAIN    74  49  41  E3      30.01S
#BENTON CITY    N/A         71  49  46  CALM    29.91S
#CONNELL 5N     N/A         69  48  47  CALM    30.01
#CONNELL 5NW    N/A         68  49  51  CALM    29.96S
#ELTOPIA 6NW    N/A         69  53  57  CALM    28.99
#KAHLOTUS       N/A         69  47  45  NW7     29.99
#KENNEWICK 3S   N/A         69  54  59  CALM    30.00S
#PATERSON       N/A         70  54  57  CALM    29.98
#PROSSER DOT    N/A         73  48  41  CALM    30.02S
#SAGEMOOR 2W    N/A         70  51  51  CALM    29.86
#TOUCHET 2S     N/A         72  52  49  CALM    29.98
#WEST PASCO     N/A         74  51  44  CALM    29.99S
$$

WAZ029-260110-
FOOTHILLS OF THE BLUES...WASHINGTON

CITY            SKY/WX      TMP DP  RH  WIND    PRES   REMARKS
WALLA WALLA AP  CLOUDY      72  46  39  W7      30.03
6HR MIN TEMP:   69; 6HR MAX TEMP:   75;

#CLYDE 6NW      N/A         68  48  49  SW8     29.98
#DAYTON SCHOOL  N/A         69  40  35  CALM    30.04
#DELANEY DOT    N/A         72  43  35  SW5     30.03
#LOWDEN 2SE     N/A         72  52  49  CALM    29.98S
#PLEASANT VIEW 1N/A         67  46  47  SW6     30.03
#PRESCOTT       N/A         72  52  49  CALM    30.00
#WHITMAN COLLEGEN/A         70  49  47  CALM    30.05R
#WAITSBURG 6SSE N/A         68  44  42  SW2     30.03R
#WALLA WALLA 5E N/A         69  47  45  W3      N/A
#WALLA WALLA U  N/A         74  49  41  CALM    29.99
#WHITMAN MISSIONN/A         73  49  43  CALM    30.01
$$

WAZ030-260110-
BLUE MOUNTAINS...WASHINGTON

CITY            SKY/WX      TMP DP  RH  WIND    PRES   REMARKS
#DIXIE 5SE      N/A         62  44  52  W3      30.01
$$

ORZ009-041-WAZ024-260110-
COLUMBIA RIVER GORGE

CITY            SKY/WX      TMP DP  RH  WIND    PRES   REMARKS
THE DALLES AP   PTCLDY      70  50  49  NW17G24 30.04
6HR MIN TEMP:   67; 6HR MAX TEMP:   76;

#ARLINGTON AIRPON/A         72  51  48  W3      30.00S
#CELILO DOT     N/A         72  47  41  W8      N/A
#LYLE           N/A         67  54  63  NW7     30.05
#MARYHILL       N/A         69  47  45  N18G29  N/A
#MURDOCK        N/A         68  54  61  NW13    29.99S
#RUFUS DOT      N/A         75  N/A N/A NW17    N/A
#SMITHVILLE     N/A         67  54  63  N12     29.98R

$$

ORZ510-260110-
NORTH CENTRAL OREGON

CITY            SKY/WX      TMP DP  RH  WIND    PRES   REMARKS
#ANTELOPE       N/A         67  47  49  NW1     29.90S
#CHENOWITH 1W   N/A         60  50  69  W25     N/A
#COW CYN RST AREN/A         66  42  42  W6      N/A
#DUFUR          N/A         67  50  54  N5      30.00
#DUFUR 9E       N/A         60  47  62  NW17    30.07
#GRASS VALLEY 1SN/A         65  48  54  N7      30.09S
#KENT DOT       N/A         65  38  37  N10     N/A
#MAUPIN SCHOOL  N/A         71  50  47  W9      30.08S
#MORO SCHOOL    N/A         63  51  65  NW15    30.05S
#SHANIKO 4NW    N/A         62  43  50  W10     30.10
#TYGH VALLEY 2NEN/A         69  49  49  N7      30.01
#WAPANITIA AIRPON/A         67  49  52  W9      30.03
#WASCO DOT      N/A         70  46  42  W14     N/A
#WASCO 5NE      N/A         69  50  51  W12     30.00S
$$

ORZ511-260110-
CENTRAL OREGON

CITY            SKY/WX      TMP DP  RH  WIND    PRES   REMARKS
BEND AIRPORT    PTCLDY      66  43  43  N7      30.10S
MADRAS AIRPORT  PTCLDY      68  66  93  N14     30.09S
PRINEVILLE AP   PTCLDY      68  39  35  N8      30.09S
REDMOND AIRPORT PTCLDY      67  39  36  N10     30.08
6HR MIN TEMP:   61; 6HR MAX TEMP:   73;

#ASHWOOD SCHOOL N/A         68  43  40  CALM    30.03
#BEND 1SW       N/A         63  44  50  N3      N/A
#BEND-AWBREY    N/A         64  44  48  N5      30.03S
#BEND-KIM LN    N/A         65  47  52  N7      29.98S
#CULVER 8W      N/A         67  43  42  CALM    30.08R
#LAKE BILLY CHINN/A         67  N/A N/A N1      30.12R
#MADRAS 4S      N/A         68  15  13  N15     N/A
#POWELL BUTTE   N/A         66  42  42  CALM    30.04S
#PRINEVILLE     N/A         70  43  38  W2      30.11
#WARM SPRINGS   N/A         70  48  46  CALM    29.89R

$$


ORZ509-260110-
EAST SLOPES OF OREGON CASCADES

CITY            SKY/WX      TMP DP  RH  WIND    PRES   REMARKS
SISTERS AWOS    N/A         64  46  52  W13G24  N/A
#BLUE BOX PASS  N/A         52  N/A N/A NW6     N/A
#CAMP SHERMAN   N/A         65  45  48  N3      30.13R
#LA PINE DOT    N/A         64  33  31  W7      N/A
#LA PINE 4NW    N/A         62  44  52  CALM    30.14S
#LAVA BUTTE DOT N/A         64  36  35  SE2     N/A
#SISTERS ODOT   N/A         65  43  45  W3      N/A
#SISTERS 3N     N/A         62  44  52  N6      30.09S
#SUNRIVER       N/A         64  44  48  SW1     30.09S
#TUMALO 3W      N/A         63  44  50  N9      29.90
#WANOGA BUTTE D N/A         54  38  55  NE5     N/A

$$

ORZ044-260110-
LOWER COLUMBIA BASIN...OREGON

CITY            SKY/WX      TMP DP  RH  WIND    PRES   REMARKS
HERMISTON       MOCLDY      73  48  41  CALM    30.01
6HR MIN TEMP:   65; 6HR MAX TEMP:   74;

#BOARDMAN SCHOOLN/A         73  51  46  CALM    29.99
#BOARDMAN 8SW   N/A         72  52  49  W2      30.00S
#ECHO 8SW       N/A         71  50  47  NW2     30.02S
#I-84 EX 198 DOTN/A         69  48  47  E5      N/A
#IONE SCHOOL    N/A         70  46  42  W6      30.01S
#UMATILLA       N/A         72  48  43  CALM    29.93S
$$

ORZ507-260110-
NORTHERN FOOTHILLS OF THE BLUES

CITY            SKY/WX      TMP DP  RH  WIND    PRES   REMARKS
PENDLETON AIRPT CLOUDY      69  46  44  NW7     30.04
6HR MIN TEMP:   67; 6HR MAX TEMP:   73;

#ADAMS 3WNW     N/A         69  46  44  W3      30.00
#ATHENA         N/A         67  46  47  CALM    30.03
#CAYUSE         N/A         69  47  45  NW5     29.99
#HELIX SCHOOL   N/A         68  45  44  CALM    30.02
#HELIX 3N       N/A         67  44  43  W7      30.02
#HOLDMAN 5SE    N/A         68  48  49  W2      30.03S
#HOLDMAN 6E     N/A         67  47  49  W2      29.82
#M-F GROVE ELEM N/A         71  45  39  CALM    30.00
#M-FREEWATER 5SEN/A         69  51  53  CALM    30.03
#PENDLETON DNTN N/A         71  43  36  W1      30.01
#PDT SUNRIDGE   N/A         70  48  46  NW2     30.05R
#PENDLETON 7NW  N/A         69  51  53  CALM    N/A
#PILOT ROCK     N/A         69  46  44  CALM    30.07S
#TUTUILLA       N/A         69  46  44  CALM    30.08
#UMAPINE 2E     N/A         72  51  48  CALM    29.99
#WESTON SCHOOL  N/A         67  41  39  N2      29.96

$$

ORZ508-260110-
SOUTHERN FOOTHILLS OF THE BLUES

CITY            SKY/WX      TMP DP  RH  WIND    PRES   REMARKS
LEXINGTON       PTCLDY      70  45  41  W9      30.08R
#AJAX           N/A         65  41  41  W10     30.21
#FOSSIL SCHOOL  N/A         68  45  44  CALM    30.01S
#HEPPNER EOC    N/A         66  46  48  NW5     29.95S
#HEPPNER 4NE    N/A         63  46  54  W7      30.01
#LEXINGTON 2SE  N/A         70  47  44  W6      30.00R
#MIKKALO        N/A         69  44  40  W10     30.15R
#OLEX 4N        N/A         71  49  46  W10     30.01S
#RUGGS 5NE      N/A         65  43  45  CALM    30.27S
#RUGGS 2SW      N/A         65  44  46  NW10    30.03S

$$

ORZ502-503-260110-
BLUE MOUNTAINS

CITY            SKY/WX      TMP DP  RH  WIND    PRES   REMARKS
MEACHAM         CLOUDY      61  40  46  NW5     30.10
6HR MIN TEMP:   58; 6HR MAX TEMP:   64; 6HR PCP:  TRACE;

#BATTLE MTN DOT N/A         60  36  41  N1      N/A
#GRANITE        N/A         59  34  39  N1      30.01F
#GREENHORN 9SW  N/A         64  37  37  NW1     26.27F
#HEPPNER 15SE   N/A         57  44  62  W2      30.01S
#LADD CYN SMT   N/A         66  37  34  S2      N/A
#LADD CREEK ODOTN/A         67  40  37  NE2     N/A
#LONG CREEK HS  N/A         63  40  43  NW5     30.09S
#N POWDER DOT   N/A         62  44  52  NW3     N/A
#PIKES PEAK     N/A         58  42  55  NE3     27.99
#SUMMERVILLE 5NWN/A         62  45  54  N3      28.01F
#TOLLGATE       N/A         53  41  64  N1      29.97
#TROY SCHOOL    N/A         69  51  53  SE1     29.85
#UKIAH          N/A         63  41  44  NW6     29.96
#WESTON 4E      N/A         62  43  50  SW2     29.99
$$

ORZ505-260110-
JOHN DAY BASIN

CITY            SKY/WX      TMP DP  RH  WIND    PRES   REMARKS
JOHN DAY        MOCLDY      67  37  33  CALM    30.08S
#JOHN DAY KJDY  N/A         69  N/A N/A SW1     29.41R
#ANTELOPE 9ESE  N/A         73  44  35  NW2     N/A
#DAYVILLE SCHOOLN/A         71  36  28  W1      30.00
#MITCHELL       N/A         68  47  47  CALM    30.22S
#MITCHELL 8NW   N/A         65  37  35  NW2     30.05
#MONUMENT HS    N/A         73  36  26  NW5     29.98
#MT. VERNON 5SE N/A         64  37  37  SW1     30.04S
#WINLOCK        N/A         65  39  38  CALM    30.03S
$$

ORZ506-260110-
OCHOCO AND JOHN DAY HIGHLANDS

CITY            SKY/WX      TMP DP  RH  WIND    PRES   REMARKS
#HORSE RIDGE DO N/A         66  35  32  NW9     N/A
#IZEE 6NW       N/A         67  37  33  N2      N/A
#PAULINA ODOT   N/A         68  30  24  W5      N/A
#PINE MTN OBS   N/A         54  37  52  CALM    N/A
#PRAIRIE CITY   N/A         63  46  54  CALM    30.22F
#SENECA         N/A         62  N/A N/A NW2     N/A
#SENECA 9NW     N/A         61  37  41  CALM    30.07
$$

ORZ049-260110-
GRANDE RONDE VALLEY

CITY            SKY/WX      TMP DP  RH  WIND    PRES   REMARKS
LA GRANDE       MOCLDY      67  42  40  CALM    30.06
#COVE           N/A         69  48  47  W5      30.08
#COVE SCHOOL    N/A         69  44  40  CALM    30.06
#COVE 6NW       N/A         68  44  42  CALM    30.02
#ELGIN 3N       N/A         66  40  38  NW2     30.46S
#ELGIN 1E       N/A         68  43  40  CALM    N/A
#IMBLER SCHOOL  N/A         64  45  50  CALM    30.01
#ISLAND CITY 4N N/A         64  56  75  CALM    30.10
#UNION 1S       N/A         66  46  48  CALM    30.02
$$

ORZ050-260110-
WALLOWA COUNTY

CITY            SKY/WX      TMP DP  RH  WIND    PRES   REMARKS
JOSEPH AIRPORT  CLOUDY      59  39  47  CALM    30.11
#ENTERPRISE HS  N/A         61  43  51  CALM    29.93
#IMNAHA SCHOOL  N/A         65  43  45  N5      30.03
#JOSEPH         N/A         60  42  51  CALM    30.29S
#JOSEPH 3N      N/A         59  44  57  CALM    30.11
#JOSEPH 3W      N/A         57  48  72  CALM    30.47S
#LOSTINE        N/A         61  47  60  CALM    29.85S
#LOSTINE 3SE    N/A         61  41  48  CALM    30.13S
#MT HOWARD 8000 N/A         41  N/A N/A CALM    30.21
#PROMISE 1S     N/A         55  49  80  CALM    30.14S
#WALLOWA LAKE   N/A         59  47  64  CALM    30.14S
#WALLOWA SCHOOL N/A         66  46  48  CALM    30.02



$$



USA.gov is the U.S. government's official web portal to all federal, state and local government web resources and services.